• Em Portugal
  • Lista de países
  • Para 7 dias
  • Temperatura da água
  • Mapas de satélite
  • Mapa do tempo
  • Widgets de tempo
  • user-avatar
    Iniciar Sessão

    Previsão horária em Samsun

    Hoje, 20 Outubro, Sexta-feira

    Tempo Temperatura Precipitação Vento Pressão Humidade
    00:00 +17°C° 0 mm 2 m/s 753 mmHg 53%
    01:00 +17°C° 0 mm 2 m/s 753 mmHg 53%
    02:00 +17°C° 0 mm 2 m/s 753 mmHg 53%
    03:00 +16°C° 0 mm 2 m/s 753 mmHg 53%
    04:00 +16°C° 0 mm 2 m/s 753 mmHg 53%
    05:00 +16°C° 0 mm 2 m/s 753 mmHg 53%
    06:00 +17°C° 0 mm 2 m/s 753 mmHg 50%
    07:00 +20°C° 0 mm 1 m/s 753 mmHg 48%
    08:00 +21°C° 0 mm 1 m/s 753 mmHg 45%
    09:00 +23°C° 0 mm 1 m/s 753 mmHg 41%
    10:00 +25°C° 0 mm 1 m/s 753 mmHg 37%
    11:00 +27°C° 0 mm 1 m/s 753 mmHg 33%
    12:00 +27°C° 0 mm 2 m/s 753 mmHg 34%
    13:00 +27°C° 0 mm 2 m/s 753 mmHg 35%
    14:00 +26°C° 0 mm 2 m/s 753 mmHg 37%
    15:00 +24°C° 0 mm 2 m/s 753 mmHg 45%
    16:00 +22°C° 0 mm 1 m/s 753 mmHg 54%
    17:00 +20°C° 0 mm 1 m/s 753 mmHg 63%
    18:00 +19°C° 0 mm 1 m/s 753 mmHg 64%
    19:00 +19°C° 0 mm 1 m/s 753 mmHg 65%
    20:00 +18°C° 0 mm 1 m/s 753 mmHg 66%
    21:00 +18°C° 0 mm 1 m/s 753 mmHg 66%
    22:00 +18°C° 0 mm 1 m/s 753 mmHg 65%
    23:00 +18°C° 0 mm 1 m/s 753 mmHg 64%

    Amanhã, 21 Outubro, Sábado

    Tempo Temperatura Precipitação Vento Pressão Humidade
    00:00 +16°C° 0 mm 1 m/s 753 mmHg 64%
    01:00 +16°C° 0 mm 1 m/s 753 mmHg 64%
    02:00 +16°C° 0 mm 1 m/s 753 mmHg 64%
    03:00 +16°C° 0 mm 1 m/s 753 mmHg 64%
    04:00 +16°C° 0 mm 1 m/s 753 mmHg 65%
    05:00 +15°C° 0 mm 1 m/s 753 mmHg 65%
    06:00 +18°C° 0 mm 1 m/s 753 mmHg 61%
    07:00 +19°C° 0 mm 1 m/s 753 mmHg 56%
    08:00 +21°C° 0 mm 1 m/s 753 mmHg 52%
    09:00 +22°C° 0 mm 1 m/s 753 mmHg 48%
    10:00 +24°C° 0 mm 2 m/s 753 mmHg 44%
    11:00 +25°C° 0 mm 2 m/s 752 mmHg 40%
    12:00 +25°C° 0 mm 2 m/s 752 mmHg 41%
    13:00 +25°C° 0 mm 2 m/s 752 mmHg 43%
    14:00 +25°C° 0 mm 3 m/s 751 mmHg 44%
    15:00 +21°C° 0 mm 2 m/s 751 mmHg 54%
    16:00 +19°C° 0 mm 2 m/s 751 mmHg 64%
    17:00 +18°C° 0 mm 1 m/s 751 mmHg 74%
    18:00 +18°C° 0 mm 1 m/s 751 mmHg 77%
    19:00 +16°C° 0 mm 2 m/s 752 mmHg 80%
    20:00 +15°C° 0 mm 2 m/s 752 mmHg 83%
    21:00 +15°C° 0 mm 2 m/s 752 mmHg 81%
    22:00 +15°C° 0 mm 2 m/s 752 mmHg 80%
    23:00 +15°C° 0 mm 2 m/s 752 mmHg 79%

    Depois de amanhã, 22 Outubro, Domingo

    Tempo Temperatura Precipitação Vento Pressão Humidade
    00:00 +15°C° 0 mm 2 m/s 752 mmHg 78%
    01:00 +15°C° 0 mm 2 m/s 751 mmHg 77%
    02:00 +15°C° 0 mm 1 m/s 751 mmHg 76%
    03:00 +14°C° 0 mm 1 m/s 751 mmHg 76%
    04:00 +14°C° 0 mm 1 m/s 751 mmHg 76%
    05:00 +14°C° 0 mm 1 m/s 751 mmHg 76%
    06:00 +16°C° 0 mm 1 m/s 751 mmHg 70%
    07:00 +18°C° 0 mm 1 m/s 751 mmHg 65%
    08:00 +20°C° 0 mm 1 m/s 751 mmHg 59%
    09:00 +21°C° 0 mm 1 m/s 751 mmHg 53%
    10:00 +22°C° 0 mm 1 m/s 751 mmHg 47%
    11:00 +24°C° 0 mm 2 m/s 751 mmHg 41%
    12:00 +24°C° 0 mm 2 m/s 751 mmHg 42%
    13:00 +24°C° 0 mm 3 m/s 751 mmHg 42%
    14:00 +22°C° 0 mm 3 m/s 750 mmHg 42%
    15:00 +20°C° 0 mm 3 m/s 751 mmHg 51%
    16:00 +18°C° 0 mm 2 m/s 751 mmHg 61%
    17:00 +16°C° 0 mm 2 m/s 751 mmHg 70%
    18:00 +16°C° 0 mm 2 m/s 751 mmHg 73%
    19:00 +15°C° 0 mm 2 m/s 751 mmHg 76%
    20:00 +14°C° 0 mm 2 m/s 752 mmHg 79%
    21:00 +14°C° 0 mm 2 m/s 752 mmHg 78%
    22:00 +14°C° 0 mm 2 m/s 752 mmHg 78%
    23:00 +14°C° 0 mm 2 m/s 752 mmHg 78%

    23 Outubro, Segunda-feira

    Tempo Temperatura Precipitação Vento Pressão Humidade
    00:00 +14°C° 0 mm 2 m/s 752 mmHg 77%
    01:00 +13°C° 0 mm 2 m/s 752 mmHg 77%
    02:00 +13°C° 0 mm 2 m/s 752 mmHg 77%
    03:00 +13°C° 0 mm 1 m/s 752 mmHg 76%
    04:00 +13°C° 0 mm 1 m/s 752 mmHg 76%
    05:00 +13°C° 0 mm 1 m/s 752 mmHg 76%
    06:00 +14°C° 0 mm 1 m/s 752 mmHg 70%
    07:00 +16°C° 0 mm 1 m/s 752 mmHg 63%
    08:00 +18°C° 0 mm 1 m/s 752 mmHg 57%
    09:00 +20°C° 0 mm 1 m/s 751 mmHg 52%
    10:00 +20°C° 0 mm 2 m/s 751 mmHg 47%
    11:00 +23°C° 0 mm 2 m/s 750 mmHg 41%
    12:00 +23°C° 0 mm 2 m/s 750 mmHg 43%
    13:00 +22°C° 0 mm 3 m/s 749 mmHg 44%
    14:00 +22°C° 0 mm 3 m/s 749 mmHg 45%
    15:00 +20°C° 0 mm 3 m/s 749 mmHg 55%
    16:00 +18°C° 0 mm 3 m/s 749 mmHg 66%
    17:00 +16°C° 0 mm 3 m/s 749 mmHg 76%
    18:00 +16°C° 0 mm 3 m/s 749 mmHg 79%
    19:00 +14°C° 0 mm 3 m/s 749 mmHg 82%
    20:00 +15°C° 0 mm 2 m/s 749 mmHg 85%
    21:00 +15°C° 0 mm 2 m/s 749 mmHg 84%
    22:00 +15°C° 0 mm 2 m/s 749 mmHg 82%
    23:00 +15°C° 0 mm 2 m/s 748 mmHg 80%

    24 Outubro, Terça-feira

    Tempo Temperatura Precipitação Vento Pressão Humidade
    00:00 +15°C° 0 mm 2 m/s 748 mmHg 77%
    01:00 +15°C° 0 mm 2 m/s 748 mmHg 73%
    02:00 +15°C° 0 mm 2 m/s 748 mmHg 70%
    03:00 +15°C° 0 mm 2 m/s 748 mmHg 67%
    04:00 +14°C° 0 mm 2 m/s 748 mmHg 65%
    05:00 +14°C° 0 mm 2 m/s 748 mmHg 62%
    06:00 +16°C° 0 mm 2 m/s 749 mmHg 57%
    07:00 +17°C° 0 mm 2 m/s 749 mmHg 52%
    08:00 +19°C° 0 mm 2 m/s 749 mmHg 47%
    09:00 +21°C° 0 mm 2 m/s 749 mmHg 41%
    10:00 +24°C° 0 mm 2 m/s 749 mmHg 34%
    11:00 +26°C° 0 mm 2 m/s 749 mmHg 28%
    12:00 +26°C° 0 mm 3 m/s 748 mmHg 30%
    13:00 +26°C° 0 mm 3 m/s 748 mmHg 31%
    14:00 +26°C° 0 mm 3 m/s 748 mmHg 32%
    15:00 +24°C° 0 mm 3 m/s 748 mmHg 40%
    16:00 +21°C° 0 mm 2 m/s 748 mmHg 49%
    17:00 +18°C° 0 mm 2 m/s 748 mmHg 57%
    18:00 +18°C° 0 mm 2 m/s 749 mmHg 57%
    19:00 +18°C° 0 mm 2 m/s 749 mmHg 57%
    20:00 +18°C° 0 mm 1 m/s 749 mmHg 57%
    21:00 +18°C° 0 mm 1 m/s 749 mmHg 55%
    22:00 +18°C° 0 mm 1 m/s 749 mmHg 53%
    23:00 +18°C° 0 mm 1 m/s 749 mmHg 51%

    25 Outubro, Quarta-feira

    Tempo Temperatura Precipitação Vento Pressão Humidade
    00:00 +18°C° 0 mm 1 m/s 749 mmHg 49%
    01:00 +18°C° 0 mm 1 m/s 749 mmHg 47%
    02:00 +18°C° 0 mm 1 m/s 749 mmHg 46%
    03:00 +18°C° 0 mm 1 m/s 749 mmHg 44%
    04:00 +18°C° 0 mm 1 m/s 749 mmHg 43%
    05:00 +18°C° 0 mm 1 m/s 749 mmHg 42%
    06:00 +19°C° 0 mm 1 m/s 750 mmHg 42%
    07:00 +20°C° 0 mm 1 m/s 750 mmHg 41%
    08:00 +21°C° 0 mm 1 m/s 750 mmHg 41%
    09:00 +23°C° 0 mm 1 m/s 750 mmHg 37%
    10:00 +25°C° 0 mm 1 m/s 750 mmHg 32%
    11:00 +27°C° 0 mm 1 m/s 749 mmHg 28%
    12:00 +27°C° 0 mm 2 m/s 749 mmHg 29%
    13:00 +27°C° 0 mm 2 m/s 749 mmHg 31%
    14:00 +27°C° 0 mm 3 m/s 748 mmHg 32%
    15:00 +25°C° 0 mm 2 m/s 748 mmHg 44%
    16:00 +21°C° 0 mm 2 m/s 748 mmHg 55%
    17:00 +18°C° 0 mm 2 m/s 748 mmHg 67%
    18:00 +18°C° 0 mm 2 m/s 749 mmHg 71%
    19:00 +17°C° 0 mm 2 m/s 749 mmHg 74%
    20:00 +16°C° 0 mm 2 m/s 749 mmHg 78%
    21:00 +16°C° 0 mm 2 m/s 749 mmHg 79%
    22:00 +16°C° 0 mm 2 m/s 749 mmHg 79%
    23:00 +16°C° 0 mm 2 m/s 749 mmHg 80%
    Mostrar mais